Wetbulb
31.44 27.52 26.25 31.52 32.69 31.89 31.24 30.16 29.26 31.19 33.21 30.73 29.99 31.61 35.14 37.04 32.90 33.22 35.08 35.31 35.12 36.27 39.43 38.23 40.54 40.37 41.11 41.61 41.33 41.45 40.36 39.68 39.79 37.32 36.92 36.99 37.68 38.79 38.76 40.24 42.11 42.08 42.09 42.18
27.36 24.56 29.76 31.48 31.64 31.31 30.02 28.31 28.01 31.36 32.36 30.66 29.82 30.02 34.86 36.55 35.72 36.37 37.27 37.16 37.15 37.66 35.42 37.52 37.70 38.94 40.45 40.80 41.00 40.64 41.36 39.44 40.28 39.14 38.30 38.29 37.66 37.92 38.70 40.39 41.32 42.06 41.85 41.47
25.46 28.00 31.46 31.35 28.14 28.69 27.56 27.76 27.75 29.31 31.41 29.44 27.55 28.41 31.34 35.35 35.38 36.64 38.71 39.23 38.64 38.32 37.25 36.49 37.70 38.50 40.03 40.21 40.08 40.84 40.97 40.12 40.27 39.63 39.37 38.14 38.43 38.10 38.29 39.23 39.81 41.07 41.36 41.32
26.78 28.98 29.72 27.31 27.75 29.07 24.52 29.19 29.55 28.72 26.61 23.21 27.07 22.61 28.61 35.17 35.98 35.95 36.81 35.45 37.26 37.08 37.25 37.99 37.76 37.03 38.84 40.16 39.85 41.10 41.19 40.58 40.25 40.49 39.28 37.63 36.36 36.23 37.74 38.40 38.92 39.62 40.71 40.31
25.12 25.60 25.70 25.90 27.10 29.72 26.08 28.74 27.39 26.42 24.41 22.08 21.22 21.42 25.76 31.89 34.32 36.95 36.10 35.56 35.50 36.14 35.99 36.56 37.92 38.91 39.55 39.70 39.04 40.65 40.91 40.60 40.71 40.55 40.07 37.68 36.26 37.17 37.54 37.47 37.96 38.22 38.81 39.71
25.65 27.39 26.34 26.50 26.95 27.21 29.59 27.24 27.12 24.79 22.71 15.51 23.63 24.59 22.89 31.12 33.91 35.66 35.55 35.69 36.35 35.71 35.21 35.39 36.83 38.99 39.04 38.81 39.20 39.83 39.99 40.03 39.89 40.27 38.70 37.90 36.92 37.13 36.84 36.46 36.36 36.63 37.07 37.02
23.96 24.45 25.06 27.76 24.63 26.41 26.04 23.09 17.21 14.64 11.75 16.82 22.27 22.11 26.50 32.47 35.04 35.91 36.08 37.34 35.97 34.60 34.58 34.98 34.60 35.83 36.08 37.28 37.90 38.93 39.39 38.83 39.41 39.39 38.77 37.94 37.30 37.11 36.83 36.59 35.94 35.30 35.17 35.07
19.01 18.27 24.05 26.97 25.78 24.15 23.00 22.68 19.06 12.68 15.68 21.04 22.97 21.04 29.22 35.06 36.38 36.51 36.96 36.70 35.84 35.08 34.75 35.04 34.89 36.61 37.31 38.13 38.74 39.40 38.72 39.24 38.90 38.95 38.55 37.91 37.59 36.94 36.58 36.23 35.71 35.32 34.94 34.86
16.80 21.77 24.58 25.98 25.05 25.52 23.52 20.49 25.05 19.81 13.87 15.74 21.64 25.27 31.98 34.48 33.32 33.97 34.47 34.02 34.84 35.37 35.32 35.60 35.29 34.77 36.40 37.78 38.89 39.75 39.05 39.58 38.83 38.87 38.40 37.23 36.95 36.67 36.33 35.95 35.64 35.10 34.95 35.83
25.65 19.68 23.22 24.32 25.07 25.12 23.87 25.84 19.76 18.15 10.70 9.42 21.34 22.05 26.29 30.57 32.83 32.54 32.56 33.25 33.50 33.70 33.89 34.42 34.61 35.00 36.54 38.36 39.60 39.70 39.72 38.99 38.55 38.04 37.89 37.49 37.02 36.61 36.09 35.51 34.88 34.64 34.74 35.12
22.48 23.50 20.07 22.11 19.48 21.51 20.97 20.15 19.81 19.89 20.59 16.30 16.07 22.96 29.81 31.66 33.46 33.18 33.38 33.64 33.60 33.70 33.87 34.06 34.41 34.88 35.19 35.74 36.53 37.58 36.46 36.45 36.30 37.18 36.76 35.91 36.29 36.12 35.81 35.05 34.71 34.46 34.63 34.54
29.47 25.82 15.76 17.66 21.08 22.75 22.06 23.07 23.06 17.49 16.89 19.68 21.47 24.17 32.01 31.94 32.03 32.89 33.33 35.01 34.33 33.74 33.38 33.35 33.95 34.15 33.81 34.18 34.69 36.04 36.17 36.45 37.28 37.18 36.49 36.16 36.06 35.98 35.09 34.49 34.28 34.45 33.85 34.02
30.04 25.14 14.09 15.95 18.32 20.11 16.22 22.48 24.11 23.69 22.62 17.52 17.17 24.99 31.50 31.29 32.13 31.74 32.59 32.76 34.59 34.42 33.91 34.03 33.69 33.85 33.85 33.72 33.98 34.79 35.89 37.21 36.18 36.02 35.77 35.43 35.57 35.24 34.44 33.99 34.01 33.98 33.54 33.24
35.43 27.72 25.34 21.06 19.73 18.20 13.05 14.66 23.13 20.73 14.35 24.01 25.69 26.91 28.39 28.98 30.95 32.35 33.42 32.77 34.52 34.80 35.33 34.86 33.59 33.75 34.06 34.34 34.28 35.16 36.12 36.67 35.41 35.70 35.50 35.22 34.92 35.05 34.24 33.94 33.50 33.34 33.06 32.50
31.20 24.15 27.12 29.24 26.05 21.81 21.53 15.25 19.70 21.33 26.37 21.68 29.03 26.59 29.95 31.98 32.68 33.26 33.34 33.90 34.24 35.07 34.82 34.43 34.71 35.72 35.21 33.60 33.62 34.84 35.58 34.80 35.14 35.45 35.03 35.08 35.01 34.38 33.69 33.08 32.77 32.57 32.20 32.20
28.96 26.32 25.33 25.77 29.17 27.36 25.36 26.64 19.25 23.37 25.47 26.65 27.68 25.65 29.40 32.58 32.24 31.79 33.22 33.81 33.90 34.37 35.18 36.05 36.10 35.17 35.15 36.60 36.75 35.56 34.79 33.82 34.63 35.08 35.02 34.63 33.99 33.66 33.14 32.51 31.98 31.39 31.17 31.13
25.40 25.40 22.32 22.38 27.54 27.08 20.53 25.30 26.53 25.04 24.18 26.60 23.03 28.97 32.12 31.98 33.16 34.93 36.13 35.74 35.55 35.50 36.17 35.90 35.62 36.93 37.56 36.90 36.70 34.43 34.74 32.66 33.60 33.91 33.68 33.44 33.62 32.81 32.13 31.79 31.05 30.84 30.52 30.41
25.58 24.65 25.40 23.14 22.36 16.23 27.03 30.90 30.45 28.40 30.01 29.79 31.01 33.36 35.08 35.09 36.27 36.06 35.66 35.37 37.06 38.04 38.34 37.48 37.30 36.59 35.75 35.73 34.70 35.08 31.93 32.45 32.77 32.51 32.58 32.67 32.58 32.07 31.06 30.61 30.47 28.80 27.71 27.16
31.17 27.77 24.22 21.40 19.78 24.11 26.60 27.84 23.85 24.78 25.10 22.93 23.35 24.93 27.02 27.37 30.94 30.87 30.25 30.82 31.77 33.68 36.63 37.32 36.30 36.59 37.07 35.14 35.36 32.09 29.93 31.29 31.61 31.88 31.88 31.93 32.36 31.29 30.68 30.10 29.02 24.78 26.12 29.28
30.45 30.61 25.58 23.82 19.28 16.31 23.55 26.94 25.44 27.22 23.36 21.61 21.56 21.06 21.86 24.21 23.86 24.74 25.92 26.98 28.37 30.82 31.25 32.22 33.47 33.55 32.75 34.37 31.10 30.24 30.16 30.61 31.23 32.13 31.92 31.88 31.98 31.51 30.47 30.45 28.34 25.10 22.71 28.37
20.09 23.76 20.70 21.20 19.53 22.20 21.07 22.47 23.64 19.92 17.79 20.96 21.05 20.79 20.95 19.61 21.31 24.00 24.16 24.36 25.62 26.62 26.29 29.36 30.20 30.97 31.60 30.51 29.98 29.86 29.36 30.12 32.87 31.13 30.57 30.51 30.91 31.08 31.02 28.68 25.23 28.16 27.64 29.21
17.54 18.47 19.60 21.09 17.72 14.68 22.85 21.19 19.84 20.02 23.01 21.17 20.04 20.00 19.40 20.71 22.04 22.42 22.18 22.20 22.85 22.36 22.86 24.50 25.35 28.33 30.31 27.91 29.39 28.65 29.26 29.82 27.51 28.31 29.17 29.61 29.80 30.55 29.15 28.27 27.27 27.99 28.88 28.33
17.24 15.37 16.71 15.76 16.28 22.83 23.84 22.16 23.67 23.72 22.39 20.62 19.23 18.89 19.19 19.17 20.35 20.77 19.62 20.35 20.51 20.56 21.97 22.20 22.03 23.24 25.69 28.03 27.43 27.66 27.49 26.88 25.88 25.56 26.06 26.95 27.59 29.30 29.20 28.31 27.73 28.25 29.01 28.32
21.04 23.60 16.86 16.40 22.07 21.44 20.60 19.78 20.17 21.35 19.57 18.64 17.58 16.42 16.33 15.27 17.74 19.55 19.04 19.49 19.68 19.83 19.06 19.41 19.85 19.51 20.27 22.69 25.87 27.60 27.24 26.03 26.15 25.30 23.90 24.81 27.78 27.72 27.79 28.92 29.01 28.66 28.79 28.18
17.65 18.39 17.12 18.33 21.37 17.86 15.41 15.15 14.70 16.43 16.58 15.40 15.40 14.88 14.65 14.27 15.66 16.78 16.26 16.29 16.61 17.30 16.61 16.65 17.28 17.47 17.66 19.90 24.19 25.99 27.68 24.03 24.32 24.00 24.39 26.32 28.10 27.91 27.87 28.85 29.08 29.51 29.82 29.71
15.88 11.33 14.08 12.31 13.27 16.01 15.11 13.09 11.94 11.57 11.20 11.33 10.34 10.49 12.88 13.21 13.50 13.22 11.91 12.73 12.54 11.97 12.52 13.65 14.26 13.93 15.16 17.63 20.18 21.99 26.69 25.91 22.49 24.36 23.58 26.38 27.73 27.65 28.38 28.39 28.27 32.39 31.98 32.22
MSLP
1013.83 1013.96 1013.17 1012.02 1012.15 1011.81 1011.65 1011.70 1011.71 1011.57 1011.46 1011.78 1011.03 1009.68 1008.10 1007.39 1007.92 1007.42 1006.97 1006.85 1007.01 1006.64 1006.44 1007.05 1007.69 1008.31 1009.03 1009.69 1010.30 1010.68 1011.55 1012.50 1013.16 1014.15 1015.05 1015.38 1015.44 1015.57 1015.66 1015.73 1015.74 1016.04 1016.29 1016.35
1014.60 1013.79 1012.80 1012.56 1012.57 1012.37 1012.04 1011.88 1011.57 1011.17 1011.60 1011.95 1010.81 1009.08 1007.49 1006.82 1005.85 1005.10 1004.80 1004.75 1004.81 1005.29 1005.84 1006.16 1007.01 1007.65 1008.25 1008.82 1009.52 1010.21 1010.84 1011.99 1012.61 1013.17 1014.03 1014.37 1014.70 1015.15 1015.24 1015.29 1015.32 1015.81 1015.87 1016.45
1014.16 1013.31 1012.94 1013.03 1012.93 1012.84 1012.41 1012.23 1011.96 1011.98 1011.93 1011.84 1011.52 1008.80 1006.64 1004.76 1004.05 1003.45 1002.89 1002.91 1003.44 1003.66 1004.37 1005.15 1005.98 1006.43 1007.22 1007.93 1008.86 1009.42 1010.08 1011.15 1012.03 1012.62 1013.64 1014.31 1014.49 1015.06 1015.34 1015.34 1015.22 1015.81 1015.76 1016.10
1014.14 1013.45 1013.42 1013.36 1013.30 1013.17 1013.05 1012.42 1012.50 1012.71 1013.14 1013.07 1011.92 1009.43 1006.31 1004.49 1003.22 1002.65 1001.98 1002.36 1002.43 1002.84 1003.34 1003.92 1004.74 1005.75 1006.26 1006.89 1008.35 1008.97 1009.63 1010.55 1011.47 1012.11 1013.09 1013.73 1013.99 1014.84 1014.79 1014.75 1014.88 1015.31 1015.65 1015.89
1013.63 1013.77 1013.91 1013.83 1013.41 1013.38 1013.36 1013.22 1013.46 1013.68 1013.80 1013.67 1012.34 1011.67 1006.39 1004.84 1003.12 1001.56 1001.32 1001.28 1001.82 1002.35 1002.85 1003.28 1003.91 1004.36 1005.16 1006.10 1007.41 1008.21 1009.01 1009.96 1010.62 1011.44 1012.16 1013.08 1013.74 1014.07 1014.35 1014.69 1014.90 1015.10 1015.48 1015.71
1014.23 1014.23 1014.14 1013.91 1014.09 1014.05 1014.04 1014.35 1014.65 1014.95 1015.17 1014.25 1011.95 1011.15 1006.17 1004.28 1002.23 1001.36 1001.00 1001.06 1001.54 1002.15 1002.68 1003.02 1003.41 1003.96 1004.79 1005.76 1006.89 1007.58 1008.43 1009.29 1010.05 1010.59 1011.47 1012.24 1012.98 1013.48 1014.28 1014.57 1014.82 1014.93 1015.39 1015.65
1014.50 1014.47 1014.26 1014.22 1014.76 1014.87 1014.78 1015.15 1016.06 1016.37 1016.12 1013.36 1011.64 1010.79 1004.97 1003.05 1001.73 1001.30 1001.04 1001.14 1001.48 1001.95 1002.57 1002.91 1003.33 1003.95 1004.78 1005.60 1006.44 1007.14 1007.86 1008.79 1009.46 1010.10 1010.89 1011.60 1012.20 1012.93 1013.37 1013.77 1014.19 1014.61 1015.19 1015.47
1014.14 1014.72 1014.11 1014.01 1013.97 1014.05 1014.83 1014.89 1014.87 1015.19 1014.82 1013.10 1011.78 1008.90 1003.97 1001.98 1001.48 1001.07 1000.81 1001.18 1001.63 1002.08 1002.54 1002.87 1003.17 1003.63 1004.15 1004.97 1005.88 1006.59 1007.40 1008.18 1008.71 1009.37 1010.11 1010.86 1011.31 1012.11 1012.65 1013.06 1013.53 1013.92 1014.53 1014.93
1013.18 1013.64 1013.73 1013.90 1013.99 1014.09 1014.87 1014.82 1014.23 1014.59 1014.69 1013.63 1010.30 1007.11 1003.92 1001.54 1001.35 1001.21 1001.44 1001.64 1002.13 1002.30 1002.64 1002.94 1003.23 1003.60 1003.88 1004.47 1005.11 1005.53 1006.46 1007.22 1007.94 1008.80 1009.51 1010.12 1010.87 1011.53 1012.12 1012.65 1012.92 1013.44 1014.07 1014.57
1011.23 1012.85 1014.00 1014.24 1014.30 1014.22 1014.22 1014.38 1014.79 1015.17 1014.70 1013.13 1009.49 1007.12 1004.03 1001.95 1001.49 1001.62 1001.95 1002.12 1002.34 1002.73 1003.05 1003.15 1003.27 1003.60 1003.84 1004.00 1004.29 1005.12 1005.76 1006.41 1007.39 1008.23 1008.87 1009.54 1010.31 1010.87 1011.53 1012.16 1012.63 1013.16 1013.70 1014.23
1010.73 1011.59 1014.54 1014.55 1014.00 1013.40 1014.50 1014.27 1014.48 1014.27 1013.31 1011.82 1009.58 1005.31 1002.32 1001.51 1001.18 1001.37 1001.30 1001.65 1002.22 1002.47 1002.74 1003.00 1003.27 1003.50 1003.83 1004.24 1004.62 1005.07 1005.75 1006.53 1007.25 1007.91 1008.50 1009.28 1010.03 1010.64 1011.25 1011.76 1012.20 1012.74 1013.27 1013.76
1010.10 1010.87 1012.88 1013.17 1013.19 1013.25 1013.22 1012.91 1013.03 1012.96 1012.56 1010.95 1008.94 1003.59 1001.49 1001.21 1000.77 1000.97 1001.23 1001.55 1001.87 1002.36 1002.75 1002.92 1003.29 1003.81 1004.24 1004.60 1005.10 1005.38 1005.85 1006.25 1006.63 1007.21 1007.96 1008.79 1009.57 1010.20 1010.85 1011.39 1011.79 1012.29 1012.80 1013.28
1009.50 1010.25 1012.15 1013.00 1013.74 1013.75 1013.22 1012.50 1011.71 1011.29 1010.97 1009.25 1007.69 1002.90 1001.52 1001.10 1000.86 1000.86 1001.01 1001.28 1001.53 1002.01 1002.53 1003.01 1003.48 1003.81 1004.15 1004.34 1004.71 1005.19 1005.47 1005.68 1006.18 1006.89 1007.64 1008.42 1009.02 1009.67 1010.32 1010.83 1011.26 1011.79 1012.33 1012.74
1008.48 1010.02 1010.13 1010.17 1010.30 1011.19 1012.28 1011.54 1010.92 1010.60 1010.01 1006.69 1004.86 1002.66 1001.77 1001.35 1001.01 1000.89 1000.95 1001.08 1001.53 1001.69 1002.04 1002.56 1003.06 1003.21 1003.40 1003.69 1004.06 1004.37 1004.60 1004.96 1005.64 1006.46 1007.10 1007.70 1008.31 1008.92 1009.61 1010.15 1010.70 1011.27 1011.72 1012.20
1008.55 1009.44 1009.43 1008.56 1009.08 1009.88 1010.18 1010.43 1010.22 1009.54 1006.94 1006.32 1002.39 1003.10 1002.34 1001.65 1001.35 1001.05 1001.21 1001.42 1001.64 1001.91 1002.26 1002.43 1002.38 1002.33 1002.49 1002.85 1003.06 1003.40 1003.68 1004.25 1004.95 1005.80 1006.39 1006.85 1007.53 1008.24 1008.98 1009.64 1010.19 1010.76 1011.36 1011.84
1009.03 1008.46 1008.44 1008.06 1007.92 1008.38 1009.05 1008.90 1008.54 1008.18 1006.98 1005.97 1003.79 1003.02 1002.25 1001.96 1001.34 1001.39 1001.31 1001.51 1001.82 1001.83 1001.60 1001.53 1001.53 1001.68 1001.78 1001.82 1001.87 1002.27 1002.87 1003.42 1004.11 1004.85 1005.32 1006.07 1006.93 1007.73 1008.39 1009.09 1009.81 1010.50 1011.02 1011.37
1008.50 1008.40 1008.38 1007.25 1007.04 1007.27 1007.25 1006.18 1006.51 1006.65 1006.05 1005.20 1004.43 1002.24 1002.94 1002.49 1001.87 1001.58 1001.65 1002.08 1001.74 1001.38 1001.25 1001.21 1001.10 1000.94 1000.79 1000.80 1000.82 1001.23 1001.54 1002.44 1003.40 1003.99 1004.67 1005.44 1006.26 1007.07 1007.71 1008.44 1009.29 1009.96 1010.47 1010.90
1008.28 1007.67 1007.32 1006.54 1006.63 1005.69 1003.53 1003.31 1003.95 1004.59 1004.40 1004.87 1004.41 1003.56 1003.06 1002.60 1002.08 1001.93 1003.13 1003.22 1002.45 1001.94 1001.19 1000.70 1000.45 1000.14 999.98 999.89 1000.22 1000.36 1001.12 1001.82 1002.60 1003.31 1003.90 1004.63 1005.45 1006.30 1007.17 1008.01 1008.74 1009.40 1010.03 1010.53
1007.47 1007.64 1006.97 1006.26 1005.29 1004.37 1003.78 1003.72 1004.76 1005.19 1006.18 1007.39 1006.73 1006.22 1005.76 1004.93 1003.93 1004.15 1005.61 1005.65 1005.13 1003.82 1002.28 1001.27 1000.51 999.90 999.48 999.37 999.28 999.92 1000.56 1001.07 1001.83 1002.52 1003.09 1003.83 1004.64 1005.59 1006.47 1007.33 1008.12 1008.90 1009.55 1010.12
1006.73 1006.83 1006.99 1006.18 1005.52 1004.80 1004.34 1004.74 1005.21 1005.46 1007.66 1009.10 1009.47 1009.07 1008.68 1007.41 1006.61 1007.12 1007.49 1007.36 1006.27 1005.35 1004.62 1002.91 1001.63 1000.86 1000.22 999.81 999.62 999.84 1000.03 1000.46 1000.80 1001.10 1001.79 1002.82 1003.77 1004.66 1005.56 1006.38 1007.33 1008.18 1008.87 1009.39
1007.45 1006.79 1006.28 1006.30 1006.34 1006.38 1007.11 1006.45 1006.37 1007.74 1011.19 1011.45 1011.49 1011.27 1010.84 1010.56 1011.09 1010.46 1009.85 1008.96 1008.32 1007.32 1006.01 1004.32 1002.85 1002.17 1001.28 1000.42 1000.05 999.72 999.66 999.72 999.40 1000.43 1001.30 1002.26 1003.12 1003.88 1004.71 1005.78 1006.73 1007.64 1008.37 1008.91
1008.90 1008.04 1007.49 1006.91 1007.32 1008.12 1008.12 1007.86 1009.07 1011.43 1011.93 1012.61 1012.77 1012.78 1012.35 1011.93 1011.67 1011.30 1010.65 1010.02 1009.09 1008.00 1006.66 1005.74 1004.60 1003.46 1002.47 1001.50 1000.78 1000.46 1000.59 1000.24 1000.28 1000.76 1001.41 1002.10 1002.83 1003.64 1004.48 1005.33 1006.33 1007.19 1007.78 1008.33
1009.64 1009.41 1009.40 1009.69 1009.52 1010.00 1010.45 1010.79 1011.98 1012.48 1012.85 1013.29 1013.59 1013.57 1013.19 1012.73 1012.33 1011.91 1011.20 1010.32 1009.97 1009.52 1008.57 1007.73 1006.07 1004.71 1003.89 1003.07 1002.44 1001.88 1001.27 1001.10 1001.13 1001.50 1001.97 1002.29 1002.87 1003.51 1004.13 1004.91 1005.73 1006.51 1007.06 1007.54
1010.71 1010.45 1011.04 1010.89 1011.00 1011.51 1012.09 1012.48 1013.02 1013.76 1014.06 1014.25 1014.22 1013.99 1013.38 1012.99 1012.72 1012.34 1012.02 1011.56 1010.76 1010.07 1009.44 1008.18 1006.07 1005.77 1005.28 1004.75 1003.77 1003.22 1002.59 1001.58 1000.90 1001.58 1002.13 1002.40 1002.85 1003.48 1004.07 1004.59 1005.10 1005.71 1006.20 1006.54
1011.26 1011.76 1012.21 1012.17 1012.14 1012.95 1013.68 1013.86 1014.63 1015.04 1015.45 1015.47 1014.84 1014.13 1013.92 1013.81 1012.98 1012.56 1012.19 1012.32 1011.86 1010.75 1009.81 1009.13 1008.38 1007.73 1007.19 1006.28 1005.03 1003.94 1002.79 1002.57 1002.07 1001.80 1002.04 1002.30 1002.67 1003.10 1003.55 1003.85 1003.99 1004.33 1004.78 1005.22
1012.80 1013.50 1014.18 1014.36 1014.63 1014.35 1014.66 1015.42 1016.03 1015.97 1016.06 1015.79 1015.30 1014.56 1014.31 1014.42 1014.11 1013.78 1013.46 1013.29 1012.95 1012.14 1010.95 1010.22 1009.82 1008.81 1007.78 1006.80 1005.44 1004.24 1003.79 1003.64 1002.59 1002.31 1002.39 1002.33 1002.39 1002.74 1003.06 1003.52 1003.88 1003.94 1004.14 1004.44
Wind_Speed
2 3 11 14 9 2 3 3 4 3 3 3 10 19 19 15 9 12 16 15 15 17 15 13 14 13 13 14 14 15 13 10 8 3 4 2 3 2 2 3 5 5 4 4
3 9 8 2 5 6 4 4 6 4 2 3 6 19 19 17 15 17 20 18 20 16 11 13 13 14 16 17 16 14 15 12 9 6 4 3 4 3 2 3 4 5 5 4
8 4 3 5 4 5 4 6 4 5 3 4 6 13 8 8 9 11 16 17 15 19 17 14 16 18 16 18 16 15 15 13 11 8 4 3 4 2 1 2 3 3 4 4
7 3 5 4 5 7 5 4 2 2 1 5 1 10 8 8 12 7 10 10 14 13 10 14 17 14 16 17 13 14 15 14 10 11 7 6 5 5 4 4 3 4 4 3
8 6 5 4 5 7 5 2 3 2 2 4 2 4 11 5 9 12 8 10 10 9 10 14 17 19 18 15 16 15 15 14 11 12 10 7 5 4 3 3 5 4 2 3
3 1 3 4 3 2 5 5 7 5 3 3 9 8 5 6 7 5 3 5 6 8 8 8 9 13 14 12 14 14 15 14 12 13 11 11 10 7 5 4 4 4 3 3
0 4 2 3 5 4 3 6 1 4 2 10 3 5 6 11 10 6 3 7 6 6 7 8 10 11 10 14 15 13 15 13 12 13 12 11 9 9 9 7 5 5 3 3
8 6 10 6 6 7 7 7 7 9 6 4 2 10 10 11 9 9 8 6 5 6 7 8 9 11 14 15 15 15 14 14 13 14 13 10 9 6 5 6 4 4 4 4
7 6 2 2 1 3 7 7 3 5 1 4 6 9 11 10 11 5 7 5 8 8 7 8 6 8 10 13 17 19 17 15 14 14 11 11 9 8 7 7 6 4 4 3
8 2 1 2 2 2 5 1 3 2 2 5 6 7 9 5 6 6 6 10 8 6 6 6 7 8 9 12 14 12 13 15 12 12 11 10 10 8 7 6 7 6 5 5
5 5 0 2 9 12 5 4 2 3 5 6 2 9 9 8 7 9 11 8 8 8 8 7 7 6 5 2 6 9 8 9 9 11 9 8 8 7 7 7 6 6 6 6
5 5 6 10 1 1 2 6 7 7 7 5 3 13 2 5 2 6 3 6 6 7 8 7 7 5 5 7 6 8 7 9 11 10 9 9 9 9 8 7 7 7 7 6
6 4 1 6 5 5 5 7 5 4 3 10 8 9 1 2 3 2 3 1 4 7 7 6 5 7 8 8 8 8 9 12 8 9 10 9 10 10 9 8 7 7 7 6
9 3 6 11 7 6 5 6 13 7 4 9 19 8 3 2 4 5 5 3 6 7 8 7 7 9 9 8 9 10 10 10 8 10 11 12 11 11 10 8 8 8 7 7
9 10 15 23 8 6 5 5 10 18 25 10 24 15 9 8 9 7 6 7 6 8 7 9 10 11 11 9 9 9 9 9 10 11 11 12 10 10 9 9 8 7 7 6
3 7 3 15 18 8 12 11 11 21 20 19 21 17 2 6 7 7 8 7 7 9 10 11 12 10 11 14 14 12 11 11 11 12 13 10 11 10 10 9 8 7 7 7
11 8 7 6 7 9 5 25 18 12 12 16 18 19 5 10 14 15 15 9 12 12 13 11 12 14 14 13 13 11 13 9 12 12 10 11 12 12 11 9 9 9 8 6
3 3 5 8 4 14 10 8 20 25 26 19 18 20 19 15 15 11 7 9 16 14 14 11 11 10 10 10 9 10 9 11 12 12 12 12 12 12 10 10 10 7 5 7
15 8 5 7 14 13 7 4 6 9 5 12 10 12 11 14 12 2 18 18 18 20 15 12 9 10 10 9 11 9 8 10 12 13 13 13 13 13 12 12 11 6 6 7
15 16 13 7 6 11 4 5 11 4 7 11 12 12 16 15 5 4 22 20 22 19 17 17 16 12 9 12 6 9 10 12 15 15 15 13 13 14 14 13 11 5 4 6
2 5 15 15 14 7 10 14 5 6 4 7 9 10 12 8 6 15 16 17 15 16 21 20 16 14 13 8 6 8 8 14 14 9 10 12 12 13 12 10 5 9 8 6
7 5 6 10 13 16 10 4 4 3 4 3 7 8 10 10 10 11 13 13 16 19 21 20 17 17 17 12 6 3 5 2 4 7 9 11 11 9 8 11 8 8 8 7
6 1 1 3 3 4 7 11 6 2 2 2 1 8 8 11 11 11 13 15 11 13 15 15 14 16 16 17 13 8 4 3 4 5 6 7 7 8 9 11 10 8 8 6
1 3 1 4 4 5 9 7 7 4 4 5 5 7 8 11 13 12 11 13 14 11 11 14 17 17 17 17 15 12 9 5 6 7 5 5 9 8 8 6 7 8 8 8
5 3 2 3 3 7 4 5 3 3 3 7 9 8 9 12 15 15 13 14 15 16 15 14 13 13 15 16 15 14 13 6 3 1 4 7 6 9 8 8 9 9 8 9
3 2 3 3 5 5 6 4 5 6 8 9 10 15 14 12 13 14 14 14 14 16 16 15 14 14 15 15 15 17 16 11 4 2 3 4 5 7 6 7 5 14 11 14
Wind_Direction
245 143 212 205 200 177 146 221 262 277 203 211 228 258 261 272 250 251 240 232 231 229 222 203 202 191 187 184 182 181 170 179 157 139 144 147 188 191 183 190 168 178 162 148
45 237 237 244 207 228 230 249 259 259 145 206 293 273 274 265 248 231 240 230 228 221 204 196 191 186 189 187 191 180 180 174 174 159 161 162 155 189 171 179 162 185 156 178
176 223 145 166 179 187 228 206 218 235 312 227 308 273 257 259 249 252 242 241 225 218 207 195 194 192 189 191 189 183 177 175 178 160 129 98 81 65 124 196 145 194 166 188
229 229 176 172 212 164 247 206 159 169 115 247 166 286 281 276 277 253 247 223 228 215 207 197 192 187 188 191 181 178 178 177 178 163 163 167 167 167 204 172 156 163 180 199
238 173 175 183 207 167 226 117 141 108 181 357 236 282 271 271 277 263 271 237 223 213 197 193 195 192 190 174 179 182 177 180 174 174 175 172 172 171 156 152 157 152 187 200
252 340 200 199 79 34 131 69 42 47 67 297 198 187 236 227 237 286 294 303 232 216 213 200 196 186 181 172 177 175 177 183 174 176 177 179 184 174 170 175 183 170 194 211
193 215 188 151 94 21 96 99 336 345 354 231 151 183 259 267 248 231 255 271 246 209 184 174 171 168 162 171 174 176 177 185 178 180 184 184 182 178 187 184 184 167 187 213
163 286 168 180 198 177 184 172 168 204 204 251 36 235 254 242 282 253 258 235 195 189 185 187 185 179 177 176 178 180 181 187 182 185 189 183 176 181 184 181 180 180 188 203
138 263 144 123 135 143 194 206 199 102 65 37 225 280 295 259 255 258 233 187 214 212 193 197 187 180 174 178 183 185 185 191 186 187 184 187 178 174 182 185 174 172 182 199
202 97 242 133 146 231 176 223 110 355 182 247 273 265 235 274 246 225 233 227 233 244 227 210 196 190 194 192 187 184 188 190 187 184 185 185 184 176 169 167 179 181 185 199
138 123 223 80 205 182 155 205 199 134 164 179 272 259 220 235 208 212 232 232 221 223 220 217 222 215 206 164 171 180 176 173 174 184 181 172 174 168 167 176 179 181 178 193
217 147 172 206 264 358 243 189 164 138 226 231 178 255 275 263 179 207 257 239 226 227 236 225 215 205 201 206 189 194 188 189 193 185 173 176 166 171 175 180 180 177 188 195
191 204 80 342 353 353 207 207 206 115 88 216 146 254 299 187 85 66 146 169 194 204 210 224 226 213 213 211 202 201 198 208 188 168 173 176 179 176 182 179 180 180 185 198
118 197 203 217 192 137 198 212 196 159 161 215 231 214 336 284 219 200 206 182 212 215 204 205 215 222 220 213 208 206 210 201 178 176 182 185 181 182 180 179 180 182 185 194
158 209 205 229 185 174 196 190 203 206 227 194 249 224 226 243 235 247 267 281 246 232 230 231 224 223 221 212 214 210 212 184 177 184 186 192 180 172 172 178 182 181 184 199
198 233 159 252 230 214 241 253 210 224 245 254 263 269 17 281 309 320 296 273 266 260 241 235 230 233 225 222 218 210 207 192 175 190 195 176 169 171 182 181 177 175 189 196
171 169 167 234 193 233 219 229 228 224 207 222 241 251 214 262 263 257 259 272 259 251 251 242 231 236 237 227 216 208 205 166 184 192 181 175 174 179 183 175 171 186 192 184
188 187 188 233 123 232 238 176 212 214 231 219 252 258 253 249 265 270 352 302 292 286 279 263 246 242 231 227 217 216 170 179 187 188 182 176 174 180 172 172 184 181 171 189
212 216 248 224 232 246 303 211 151 163 209 17 342 347 349 337 304 288 13 349 341 343 326 303 281 258 255 238 231 193 174 178 179 190 186 179 177 173 173 183 186 173 169 184
209 220 231 248 251 247 244 338 351 286 213 18 10 7 350 330 266 70 346 342 336 340 345 342 332 316 291 284 217 184 190 185 191 193 184 178 175 176 180 184 179 160 159 185
190 220 232 235 247 250 336 315 278 185 52 21 13 13 11 12 338 316 325 333 335 336 336 345 349 337 317 311 242 217 186 201 206 165 163 166 173 177 180 167 150 169 173 181
263 292 231 231 225 239 342 22 38 43 103 37 355 352 347 335 326 324 319 331 340 341 342 349 348 346 337 339 316 323 257 312 112 147 160 166 169 169 161 165 165 171 172 188
259 307 5 44 327 53 24 98 96 51 127 113 330 324 324 318 323 324 320 325 336 338 338 339 346 348 352 359 356 332 311 82 99 122 161 163 158 168 168 170 171 170 181 188
284 126 114 351 119 148 133 100 66 13 1 348 345 318 320 315 316 322 328 325 324 329 337 341 360 353 345 346 346 346 315 290 159 162 161 149 168 168 169 174 174 180 189 196
190 134 216 218 141 94 59 78 31 345 353 333 328 333 328 322 317 326 331 327 326 329 341 342 348 342 333 337 337 336 343 304 281 171 166 173 180 181 182 198 189 194 201 196
31 185 173 228 27 341 89 93 20 352 344 342 340 327 326 324 323 329 323 324 321 325 330 334 331 329 326 332 336 338 345 323 268 221 187 197 188 183 187 194 204 221 211 206